CZ-6A DEB

Satellite information

Favourite Embed

Satellite Type and Status

DEBRISIN ORBIT

Key statistics

Satellite CZ-6A DEB at a glance.

Uptime

1134

Days in orbit

Revolutions

≈ 14.6

Per day

Orbit

SSO

Sun Synchronous Orbit

Inclination

99.1

Latest

Satellite identification and parameters

Extended collection of information and parameters for CZ-6A DEB.

Object identification

Identified? True

Debris? True

Object name: CZ-6A DEB

International designator: 2022-151CY

Object number (NORAD): 54353

Object ID (CCSDS): 54353

Country: PEOPLES REPUBLIC OF CHINA (PRC)

Current information (Y/N): Y

RCS size: SMALL

Orbital parameters

Period: 98.416 minutes

Inclination: 99.0731 deg

SMA: 7061.072 km

Apoapsis: 765.128 km

Periapsis: 600.745 km

RAAN: 98.0742 deg

Eccentricy: 0.01164009

Argument of periapsis: 195.1306 deg

Mean anomaly: 164.6401 deg

Mean motion: 14.63176855 rev/day

Mean motion (dot): 0.00012626 rev/day2

B* drag term: 0.0022320693 1/REarth

Two-line elements (TLE)

Creation date: Dec. 19, 2025, 2:08 a.m.

Reference frame: TEME

Reference center: EARTH

Epoch: Dec. 18, 2025, 8:32 p.m. UTC

TLE line 0: 0 CZ-6A DEB

TLE line 1: 1 54353U 22151CY 25352.85579304 .00012626 00000-0 22321-2 0 9998

TLE line 2: 2 54353 99.0731 98.0742 0116401 195.1306 164.6401 14.63176855163153

Live tracking on map

Real-time ground track for satellite CZ-6A DEB.

In-orbit conjunctions

A list of the most updated potential collisions computed for object CZ-6A DEB.

Target Orbit TCA Probability of collision Miss distance Type
SL-14 R/B LEO 2025-05-21 08:43:06 0.0002214424 416.0 (m) ROCKET BODY
COSMOS 886 DEB MEO 2024-11-15 23:39:33 0.0001317198 354.0 (m) DEBRIS

Associated space launch

Chinese satellite reported for atmospheric/ocean/environmental/spatial parameter research purposes, details TBD.

CZ-6A DEB was lifted into orbit during the mission ‘Long March 6A | Yunhai 3’, on board a Long March 6A space rocket.

The launch took place on Nov. 11, 2022, 10:52 p.m. from Launch Complex 9A.

For more information about the launch, click the button.

Launch to space Long March 6A | Yunhai 3
Long March 6A | Yunhai 3

Agency: N/A

Status: Launch Successful

Launch date: Nov. 11, 2022, 10:52 p.m. UTC

Rocket: Long March 6A

Launch pad: Launch Complex 9A

Location: Taiyuan Satellite Launch Center, People's Republic of China

...

Latest news about this satellite

There are no fresh news available about this satellite. Check back as we update our databases every day.


Newsletter sign-up

Weekly statistics, charts and insights to help you stay on top of the space industry.